Vorticity
7 19 7 1 7 6 11 15 9 13 16 16 13 18 17 16 18 -7 19 6 2 12
8 16 11 4 3 4 6 13 11 10 16 10 2 2 16 11 30 25 -7 33 23 -1
12 15 11 5 3 5 3 6 13 7 9 14 15 17 14 5 26 21 12 14 -14 4
11 13 10 3 3 6 5 4 4 11 6 6 7 9 11 12 11 7 9 7 25 27
15 9 12 7 4 1 7 5 4 3 10 9 7 9 9 8 7 7 10 13 15 16
11 8 10 13 8 5 6 5 5 4 3 4 7 10 7 6 6 6 6 7 7 6
6 6 7 7 12 8 6 6 4 4 4 3 2 2 3 3 4 4 6 8 10 12
8 7 5 5 8 11 9 8 6 5 5 4 4 5 4 4 4 3 4 4 5 4
2 4 3 8 6 8 5 8 9 8 6 6 5 6 5 6 8 6 4 6 8 8
6 3 7 13 6 6 6 5 2 6 6 8 9 5 7 6 5 7 8 6 8 10
9 1 8 6 36 22 15 13 11 8 3 4 6 7 9 7 4 1 3 6 2 1
-4 8 11 27 15 6 9 4 2 7 16 15 6 6 10 6 4 4 7 4 7 7
21 31 -0 13 4 1 0 4 3 5 6 8 6 3 2 0 1 4 8 11 2 5
64 4 -3 -1 3 6 -1 5 8 4 3 2 0 1 3 3 6 6 5 5 5 5
Height
5703 5705 5707 5708 5708 5708 5708 5708 5708 5706 5706 5706 5707 5709 5710 5711 5714 5716 5718 5720 5725 5726
5696 5698 5701 5703 5704 5704 5704 5704 5704 5703 5703 5703 5704 5705 5705 5705 5706 5708 5711 5714 5717 5719
5690 5692 5695 5697 5698 5699 5700 5701 5701 5701 5702 5702 5703 5703 5704 5703 5702 5704 5706 5708 5709 5712
5684 5687 5689 5691 5693 5694 5695 5697 5698 5698 5698 5698 5699 5700 5701 5702 5701 5701 5702 5704 5704 5705
5677 5681 5683 5685 5688 5689 5691 5692 5694 5695 5696 5696 5696 5697 5698 5698 5699 5699 5700 5701 5702 5702
5671 5674 5676 5679 5682 5683 5684 5686 5688 5689 5691 5692 5693 5693 5693 5694 5694 5695 5696 5698 5698 5699
5664 5666 5670 5672 5674 5676 5677 5679 5680 5682 5683 5685 5686 5686 5687 5689 5690 5691 5692 5693 5693 5694
5656 5659 5662 5665 5666 5668 5671 5672 5674 5675 5677 5678 5679 5680 5682 5684 5685 5686 5687 5688 5688 5688
5649 5652 5654 5655 5657 5660 5662 5664 5667 5669 5670 5672 5672 5674 5676 5677 5678 5679 5679 5680 5680 5680
5640 5643 5645 5646 5646 5649 5652 5655 5658 5660 5662 5663 5665 5668 5668 5668 5668 5668 5669 5669 5669 5669
5630 5633 5636 5637 5638 5641 5643 5646 5649 5651 5652 5653 5656 5657 5657 5658 5658 5658 5658 5658 5657 5659
5623 5625 5626 5628 5631 5634 5636 5638 5640 5641 5642 5643 5646 5647 5647 5647 5647 5647 5646 5647 5648 5648
5613 5615 5616 5620 5622 5626 5627 5629 5630 5632 5633 5634 5635 5637 5638 5637 5635 5634 5635 5635 5635 5635
5599 5602 5608 5610 5613 5615 5617 5618 5620 5621 5622 5623 5624 5625 5626 5625 5624 5623 5622 5621 5620 5619